Location: Newark
(17.9939°S, 31.0481°E)
Time: 23:24:38
(UTC+00:00)

Hubble Space Telescope - Visible Passes

Search period start: 15 October 2019 00:00
Search period end: 25 October 2019 00:00
Orbit: 536 x 540 km, 28.5° (Epoch: 14 October)

Date Brightness Start Highest point End Pass type
(mag) Time Alt. Az. Time Alt. Az. Time Alt. Az.
15 Oct 2.5 02:07:12 17° SW 02:09:35 28° SSE 02:13:11 10° ESE visible
16 Oct 2.2 01:57:26 24° SSW 01:59:07 33° SSE 02:02:53 10° E visible
17 Oct 1.8 01:47:45 35° SSW 01:48:37 40° SSE 01:52:32 10° E visible
18 Oct 1.5 01:38:13 50° SSE 01:38:13 50° SSE 01:42:09 10° E visible
18 Oct 2.7 16:57:38 10° N 16:59:39 15° NNE 16:59:39 15° NNE visible
19 Oct 1.9 01:28:48 42° E 01:28:48 42° E 01:31:42 10° ENE visible
19 Oct 2.2 16:46:20 10° NNW 16:49:27 20° NNE 16:50:33 19° NE visible
20 Oct 2.8 01:19:30 24° ENE 01:19:30 24° ENE 01:21:11 10° ENE visible
20 Oct 2.3 02:55:03 10° WNW 02:58:03 19° NNW 03:01:02 10° NNE visible
20 Oct 1.8 16:35:17 10° NNW 16:38:50 28° NNE 16:41:24 15° E visible
20 Oct 3.4 18:15:48 10° WNW 18:16:48 17° W 18:16:48 17° W visible
21 Oct 3.6 01:10:18 12° ENE 01:10:18 12° ENE 01:10:36 10° ENE visible
21 Oct 2.7 02:45:41 11° WNW 02:47:26 14° NNW 02:49:39 10° N visible
21 Oct 1.4 16:24:23 10° NW 16:28:14 37° NNE 16:32:06 10° E visible
21 Oct 2.7 18:05:22 10° W 18:07:35 28° WSW 18:07:35 28° WSW visible
22 Oct 3.0 02:36:45 10° NNW 02:36:49 10° NNW 02:36:53 10° NNW visible
22 Oct 2.2 17:54:58 10° W 17:58:17 36° SW 17:58:17 36° SW visible
23 Oct 2.2 17:44:38 10° W 17:48:24 32° SSW 17:48:51 31° S visible
24 Oct 2.5 17:34:19 10° WSW 17:37:55 27° SSW 17:39:17 23° SSE visible
